CARTOSAT-2C (41599 NORAD) Tracking and Keplerian Element Data

This shows tracking and keplerian element data for the satellite.

Feedback or suggestion? Click here.




ElementValue
Catalog41599
NameCARTOSAT-2C
Epoch Orbit13360
Epoch Day323.19420756
Epoch Year2018
RAAN21.2069
Inclination97.3923
Eccentricity0.0015443
Argument of Perigee64.7582
Mean Anonmoly10.333
Mean Motion15.19302741
Decay Rate2.72E-06
L11 41599U 16040A 18323.19420756 .00000272 00000-0 16049-4 0 9995
L22 41599 97.3923 21.2069 0015443 64.7582 10.3330 15.19302741133608

Live tracking and technical data element details for CARTOSAT-2C (NORAD 41599). CARTOSAT-2C can be tracked NOW for your location showing map with azimuth and elevation plus other details from your city location.

Track the satellite on the map from your city or location and see movement details for azimuth, elevation, latitude, longitude, range, height, and movement on the map or in text.







IsCatalogInMostPopularTable: catalog: 41599, numindb: 95
Update: records affected: 1



GetName: 41599 CARTOSAT-2C

Hit Count: updated at: Tue, 20 Nov 2018 00:41:27 GMT